Lid_Strength_Index
1 2 1 3 11 12 14 12 9 10 9 6 5 7 7 7 9 12 2 1 0 0 -0 -1 -1 -2 -2 -2 -2 -2 -1 -2 -2 -2 -2 -2 -2 -1 -1 -1 -2 -2 -2 -2 -2 -2 -2 -2 -2
1 1 2 6 13 16 15 10 10 8 7 5 6 6 7 8 4 4 3 1 0 -0 -0 -0 -1 -1 -2 -2 -2 -2 -1 -1 -2 -2 -2 -2 -2 -2 -2 -1 -1 -1 -2 -1 -1 -1 -1 -1 -1
0 1 7 10 13 16 15 10 9 7 5 6 7 5 6 7 4 3 1 0 -0 0 -0 -0 -1 -1 -2 -2 -2 -2 -2 -1 -2 -2 -2 -2 -2 -2 -2 -2 -2 -1 -1 -1 -1 -1 -1 -1 -1
2 4 6 12 14 11 11 9 7 7 6 5 6 8 4 2 3 2 0 0 0 0 -0 -1 -2 -2 -2 -2 -2 -2 -2 -2 -2 -2 -2 -2 -2 -2 -2 -1 -1 -1 -1 -1 -1 -1 -1 -1 -1
2 6 12 13 12 11 8 7 7 8 7 7 6 8 6 3 1 1 1 0 1 0 -0 -0 -1 -2 -2 -2 -2 -2 -2 -2 -2 -2 -2 -2 -2 -2 -1 -1 -1 -1 -1 -1 -1 -1 -1 -1 -1
7 7 13 14 11 9 7 6 6 7 6 6 7 7 6 2 2 1 1 1 0 0 -0 -0 -1 -2 -2 -2 -2 -2 -2 -1 -2 -2 -2 -1 -1 -1 -2 -1 -1 -1 -1 -1 -1 -1 -1 -1 -1
8 10 13 12 11 10 7 5 7 7 8 7 5 8 5 3 2 1 1 0 0 -0 -0 -0 -0 -1 -1 -2 -2 -2 -2 -2 -2 -2 -2 -2 -2 -1 -1 -1 -1 -1 -1 -1 -1 -1 -1 -1 -1
6 9 11 10 11 11 7 6 5 6 7 4 4 8 8 4 1 1 1 1 1 0 0 0 -0 -0 0 -0 -2 -2 -2 -2 -2 -2 -2 -1 -1 -1 -1 -2 -1 -1 -1 -1 -1 -1 -1 -2 -2
4 10 12 11 10 9 6 7 5 4 6 5 4 5 3 2 1 2 2 2 1 1 0 0 0 0 0 0 -1 -1 -2 -2 -2 -1 -2 -1 -1 -0 -0 -1 -1 -1 -2 -2 -2 -2 -2 -2 -2
7 11 10 7 7 7 6 7 6 7 7 6 6 4 2 2 3 3 3 3 3 2 1 0 0 0 -0 -0 0 0 -0 -0 0 0 1 1 0 -0 -1 -1 -2 -2 -2 -2 -2 -2 -2 -1 -0
7 9 6 6 5 5 6 7 6 7 8 6 7 5 3 3 3 3 3 3 3 2 1 1 0 -0 0 0 0 -0 -0 -0 0 1 1 1 1 0 -0 -0 -1 -0 -1 -0 -1 -1 -0 -1 -0
8 6 5 5 4 5 6 6 7 6 6 4 4 4 3 4 4 4 3 3 2 2 1 1 0 1 0 -0 -0 -0 -0 0 1 1 1 1 1 1 1 0 -0 -0 -0 -0 -0 0 -0 -0 -1
6 5 4 5 4 5 5 6 7 6 5 4 4 4 4 4 3 3 3 2 2 2 1 1 0 0 0 0 0 -0 0 0 -0 0 1 1 0 0 1 0 -0 -0 -0 0 0 -0 0 -0 -0
5 5 5 5 5 4 6 7 6 6 4 4 4 5 4 4 4 3 3 3 2 2 2 1 1 0 0 0 0 0 -0 0 -0 -0 -0 1 0 0 1 1 1 0 -0 0 -0 0 0 1 1
5 7 6 6 5 5 6 9 8 5 4 5 5 5 5 4 4 4 3 3 2 2 1 1 1 0 0 0 -0 0 0 -0 -0 0 -0 0 0 0 0 1 1 1 -0 0 0 -0 0 1 0
7 7 10 6 5 5 5 12 7 5 6 7 6 6 5 5 4 3 2 2 2 1 1 1 0 0 0 0 -0 0 0 -0 0 -0 -0 -0 0 0 0 0 0 0 0 0 -0 1 1 1 1
8 12 10 8 5 6 8 11 7 5 6 7 6 6 6 5 4 3 2 2 2 1 1 1 1 1 0 0 0 0 -0 0 0 -0 0 -0 0 0 1 0 0 0 1 0 0 1 1 1 1
11 11 9 10 7 7 9 10 7 6 6 7 6 7 6 6 5 3 3 2 2 1 1 1 1 1 0 0 0 0 1 1 0 -0 -0 -0 0 0 0 1 0 -0 1 0 1 1 0 1 1
8 9 10 9 7 8 9 10 8 7 6 7 7 7 6 6 4 3 2 2 2 1 1 1 2 1 1 1 2 1 2 1 1 0 -0 -0 -0 -0 0 0 0 1 1 1 1 1 2 1 1
8 9 10 8 7 8 9 10 8 7 7 7 7 7 6 6 5 4 3 3 2 2 3 2 1 1 1 1 1 1 1 1 0 0 0 -0 -0 -0 -0 0 1 0 0 1 1 1 2 1 1
9 10 9 10 7 7 10 12 10 8 7 6 6 6 6 6 5 5 4 3 2 2 2 2 1 1 1 1 1 1 1 1 1 1 0 -0 -0 -0 1 0 0 1 1 1 1 1 2 3 1
11 7 7 8 9 14 9 18 12 10 9 7 7 6 6 5 5 4 4 4 4 2 2 1 1 1 1 0 1 2 2 3 2 1 1 0 -0 -0 0 0 0 0 0 1 1 0 1 2 3
9 7 8 8 10 12 11 15 13 10 11 9 7 6 6 5 4 4 4 3 3 2 2 1 1 1 1 1 1 1 2 2 1 1 1 1 0 0 -0 0 0 0 0 0 1 1 1 1 2
6 8 8 9 11 15 12 14 15 13 11 9 7 6 5 5 4 4 3 3 3 2 2 2 2 2 1 1 1 1 2 2 2 2 2 1 1 0 0 0 -0 0 0 1 0 0 1 1 1
8 12 15 15 15 18 12 15 14 10 8 8 7 6 5 4 4 4 4 4 3 3 2 2 2 2 1 1 1 1 1 1 2 2 2 2 1 1 1 0 1 0 0 0 0 1 1 1 1
10 11 14 18 18 16 12 17 14 8 7 6 6 5 5 5 4 4 4 3 3 3 2 2 2 2 1 1 1 1 1 1 1 1 1 1 1 1 0 0 0 0 0 0 0 0 1 1 1
10 12 10 13 13 15 16 13 10 8 8 7 7 6 5 5 4 4 4 3 3 3 2 2 2 2 2 1 1 1 1 1 1 1 1 1 1 1 0 0 0 0 0 0 0 1 1 1 1
9 8 12 13 18 18 18 16 16 11 10 8 8 6 6 5 4 4 4 3 3 2 2 2 2 2 1 1 1 1 1 1 1 1 1 1 1 1 1 1 0 1 0 1 1 1 1 1 1
10 12 11 11 12 16 20 18 11 10 9 9 8 6 5 5 5 4 4 3 3 2 2 2 2 2 2 1 1 1 1 1 1 1 1 1 1 1 1 1 1 1 1 1 1 1 1 1 1
8 9 10 12 14 14 17 16 8 8 7 7 7 7 5 5 4 4 4 3 3 3 2 3 4 3 2 2 1 1 1 1 1 1 1 1 1 1 1 1 1 1 1 1 1 1 1 1 2